HAZ5636 ZPPP-ZSHC

Flight info

Callsign HAZ5636
Flight time N/A
Altitude 37100
Route NODIB1Y NODIB W137 LPS A581 IDGAG W80 XSH DCT JDZ DCT TXN G204 OREXA OREXA81
Aircraft B738/M-SDE2E3FGHIRWXY/LB1

Departure

Time 2026-05-04 12:50
Airport Kunming Changshui International Airport (ZPPP)

Arrival

Time N/A
Airport Hangzhou Xiaoshan International Airport (ZSHC)
Time Latitude Longitude Altitude Speed Heading
2026-05-04 11:58 25.10857 102.94013 6892 ft 0 kts 35°
2026-05-04 12:25 25.10856 102.94013 6892 ft 1 kts 35°
2026-05-04 12:25 25.10837 102.93998 6892 ft 4 kts 35°
2026-05-04 12:26 25.10815 102.93981 6892 ft 4 kts 35°
2026-05-04 12:26 25.10794 102.93965 6892 ft 3 kts 34°
2026-05-04 12:26 25.10775 102.93956 6893 ft 4 kts 326°
2026-05-04 12:26 25.10761 102.93978 6893 ft 4 kts 297°
2026-05-04 12:27 25.10751 102.93997 6892 ft 1 kts 309°
2026-05-04 12:27 25.10749 102.93999 6892 ft 0 kts 309°
2026-05-04 12:30 25.10751 102.93996 6892 ft 3 kts 308°
2026-05-04 12:30 25.10770 102.93969 6892 ft 6 kts 308°
2026-05-04 12:31 25.10800 102.93925 6893 ft 9 kts 306°
2026-05-04 12:31 25.10844 102.93864 6893 ft 12 kts 309°
2026-05-04 12:31 25.10896 102.93795 6894 ft 12 kts 309°
2026-05-04 12:31 25.10911 102.93706 6895 ft 13 kts 242°
2026-05-04 12:32 25.10837 102.93631 6895 ft 16 kts 217°
2026-05-04 12:32 25.10868 102.93469 6897 ft 14 kts 310°
2026-05-04 12:32 25.10935 102.93378 6899 ft 15 kts 309°
2026-05-04 12:33 25.10999 102.93284 6900 ft 16 kts 302°
2026-05-04 12:33 25.11075 102.93188 6901 ft 17 kts 310°
2026-05-04 12:33 25.11150 102.93081 6902 ft 19 kts 306°
2026-05-04 12:33 25.11229 102.92969 6902 ft 16 kts 309°
2026-05-04 12:34 25.11308 102.92888 6903 ft 17 kts 335°
2026-05-04 12:34 25.11386 102.92913 6903 ft 11 kts 53°
2026-05-04 12:34 25.11447 102.92992 6902 ft 15 kts 45°
2026-05-04 12:34 25.11536 102.93079 6902 ft 19 kts 39°
2026-05-04 12:35 25.11638 102.93169 6901 ft 20 kts 38°
2026-05-04 12:35 25.11749 102.93265 6900 ft 21 kts 38°
2026-05-04 12:35 25.11854 102.93355 6900 ft 18 kts 38°
2026-05-04 12:35 25.11945 102.93436 6899 ft 16 kts 38°
2026-05-04 12:36 25.12024 102.93504 6899 ft 14 kts 38°
2026-05-04 12:36 25.12095 102.93565 6899 ft 13 kts 38°
2026-05-04 12:36 25.12163 102.93624 6898 ft 12 kts 38°
2026-05-04 12:36 25.12229 102.93682 6898 ft 12 kts 39°
2026-05-04 12:37 25.12286 102.93732 6898 ft 9 kts 38°
2026-05-04 12:37 25.12338 102.93777 6898 ft 10 kts 38°
2026-05-04 12:37 25.12393 102.93823 6897 ft 10 kts 37°
2026-05-04 12:37 25.12449 102.93871 6897 ft 10 kts 37°
2026-05-04 12:38 25.12502 102.93918 6897 ft 10 kts 39°
2026-05-04 12:38 25.12558 102.93968 6897 ft 11 kts 38°
2026-05-04 12:38 25.12616 102.94017 6896 ft 11 kts 37°
2026-05-04 12:38 25.12672 102.94065 6896 ft 3 kts 39°
2026-05-04 12:39 25.12689 102.94081 6896 ft 4 kts 39°
2026-05-04 12:39 25.12710 102.94100 6895 ft 4 kts 39°
2026-05-04 12:39 25.12723 102.94111 6895 ft 0 kts 38°
2026-05-04 12:39 25.12725 102.94113 6895 ft 1 kts 38°
2026-05-04 12:40 25.12729 102.94116 6895 ft 0 kts 38°
2026-05-04 12:41 25.12730 102.94117 6895 ft 1 kts 38°
2026-05-04 12:41 25.12745 102.94130 6895 ft 5 kts 37°
2026-05-04 12:41 25.12765 102.94147 6895 ft 1 kts 38°
2026-05-04 12:42 25.12766 102.94148 6895 ft 0 kts 38°
2026-05-04 12:42 25.12772 102.94153 6895 ft 3 kts 38°
2026-05-04 12:42 25.12799 102.94176 6895 ft 7 kts 38°
2026-05-04 12:43 25.12816 102.94191 6895 ft 0 kts 38°
2026-05-04 12:44 25.12819 102.94194 6895 ft 1 kts 38°
2026-05-04 12:44 25.12832 102.94205 6895 ft 0 kts 39°
2026-05-04 12:44 25.12839 102.94211 6895 ft 3 kts 40°
2026-05-04 12:44 25.12864 102.94234 6895 ft 1 kts 38°
2026-05-04 12:45 25.12875 102.94243 6895 ft 4 kts 37°
2026-05-04 12:45 25.12883 102.94249 6895 ft 2 kts 36°
2026-05-04 12:45 25.12893 102.94257 6895 ft 0 kts 35°
2026-05-04 12:46 25.12897 102.94260 6895 ft 2 kts 34°
2026-05-04 12:46 25.12924 102.94275 6895 ft 5 kts 14°
2026-05-04 12:46 25.12961 102.94261 6895 ft 7 kts 317°
2026-05-04 12:47 25.12970 102.94250 6895 ft 1 kts 311°
2026-05-04 12:47 25.12974 102.94245 6894 ft 1 kts 309°
2026-05-04 12:47 25.12977 102.94240 6894 ft 1 kts 309°
2026-05-04 12:47 25.12995 102.94215 6894 ft 10 kts 308°
2026-05-04 12:48 25.13019 102.94146 6893 ft 9 kts 261°
2026-05-04 12:48 25.12995 102.94107 6893 ft 0 kts 220°
2026-05-04 12:49 25.12953 102.94071 6893 ft 31 kts 218°
2026-05-04 12:49 25.12601 102.93764 6897 ft 96 kts 218°
2026-05-04 12:49 25.11923 102.93174 6900 ft 150 kts 218°
2026-05-04 12:49 25.10963 102.92334 6933 ft 194 kts 220°
2026-05-04 12:50 25.09936 102.91269 7332 ft 207 kts 226°
2026-05-04 12:50 25.08929 102.90115 8104 ft 203 kts 226°
2026-05-04 12:50 25.08017 102.88995 8841 ft 200 kts 237°
2026-05-04 12:50 25.07203 102.87655 9045 ft 217 kts 237°
2026-05-04 12:51 25.06211 102.86311 9161 ft 238 kts 218°
2026-05-04 12:51 25.04601 102.85716 9298 ft 260 kts 181°
2026-05-04 12:51 25.02807 102.86217 9566 ft 275 kts 153°
2026-05-04 12:51 25.01186 102.87320 10068 ft 279 kts 148°
2026-05-04 12:52 24.99553 102.88511 10565 ft 282 kts 148°
2026-05-04 12:52 24.97911 102.89717 11061 ft 286 kts 148°
2026-05-04 12:52 24.96244 102.90935 11523 ft 290 kts 148°
2026-05-04 12:52 24.94516 102.92188 11778 ft 308 kts 148°
2026-05-04 12:53 24.92658 102.93530 11938 ft 331 kts 148°
2026-05-04 12:53 24.90666 102.94962 12107 ft 352 kts 148°
2026-05-04 12:53 24.88549 102.96483 12264 ft 372 kts 148°
2026-05-04 12:53 24.86484 102.98308 12398 ft 392 kts 131°
2026-05-04 12:54 24.85092 103.00911 12774 ft 402 kts 109°
2026-05-04 12:54 24.84662 103.03958 13309 ft 405 kts 86°
2026-05-04 12:54 24.85293 103.06921 13857 ft 404 kts 62°
2026-05-04 12:54 24.86905 103.09427 14391 ft 399 kts 40°
2026-05-04 12:55 24.89109 103.11271 14878 ft 400 kts 31°
2026-05-04 12:55 24.91425 103.13012 15328 ft 405 kts 30°
2026-05-04 12:55 24.93782 103.14762 15821 ft 409 kts 30°
2026-05-04 12:55 24.96149 103.16528 16347 ft 412 kts 30°
2026-05-04 12:56 24.98532 103.18323 16855 ft 416 kts 31°
2026-05-04 12:56 25.00922 103.20138 17342 ft 420 kts 31°
2026-05-04 12:56 25.03331 103.21980 17827 ft 424 kts 31°
2026-05-04 12:56 25.05770 103.23852 18299 ft 428 kts 31°
2026-05-04 12:57 25.08227 103.25741 18722 ft 431 kts 31°
2026-05-04 12:57 25.10695 103.27642 19145 ft 434 kts 31°
2026-05-04 12:57 25.13150 103.29534 19566 ft 436 kts 31°
2026-05-04 12:57 25.15650 103.31462 19966 ft 438 kts 31°
2026-05-04 12:58 25.18160 103.33398 20368 ft 441 kts 31°
2026-05-04 12:58 25.20680 103.35343 20736 ft 444 kts 31°
2026-05-04 12:58 25.23228 103.37310 21126 ft 446 kts 31°
2026-05-04 12:58 25.25778 103.39278 21514 ft 448 kts 31°
2026-05-04 12:59 25.28314 103.41237 21874 ft 450 kts 31°
2026-05-04 12:59 25.30887 103.43225 22218 ft 453 kts 31°
2026-05-04 12:59 25.33479 103.45229 22532 ft 456 kts 31°
2026-05-04 12:59 25.36082 103.47244 22862 ft 458 kts 31°
2026-05-04 13:00 25.38706 103.49276 23203 ft 460 kts 31°
2026-05-04 13:00 25.41334 103.51313 23535 ft 463 kts 31°
2026-05-04 13:00 25.43982 103.53366 23823 ft 466 kts 31°
2026-05-04 13:00 25.46640 103.55429 24071 ft 468 kts 31°
2026-05-04 13:01 25.49314 103.57503 24328 ft 470 kts 31°
2026-05-04 13:01 25.51928 103.59722 24593 ft 476 kts 37°
2026-05-04 13:01 25.54256 103.62361 24853 ft 482 kts 46°
2026-05-04 13:01 25.56220 103.65404 25080 ft 489 kts 53°
2026-05-04 13:02 25.58051 103.68596 25302 ft 492 kts 54°
2026-05-04 13:02 25.59840 103.71780 25523 ft 494 kts 54°
2026-05-04 13:02 25.61666 103.75025 25722 ft 497 kts 54°
2026-05-04 13:02 25.63512 103.78270 25955 ft 498 kts 53°
2026-05-04 13:03 25.65378 103.81518 26186 ft 500 kts 53°
2026-05-04 13:03 25.67261 103.84774 26395 ft 502 kts 53°
2026-05-04 13:03 25.69161 103.88052 26612 ft 504 kts 53°
2026-05-04 13:03 25.71040 103.91293 26830 ft 506 kts 53°
2026-05-04 13:04 25.72950 103.94593 27034 ft 508 kts 53°
2026-05-04 13:04 25.74861 103.97901 27240 ft 510 kts 53°
2026-05-04 13:04 25.76783 104.01233 27431 ft 512 kts 53°
2026-05-04 13:04 25.78713 104.04578 27625 ft 514 kts 52°
2026-05-04 13:05 25.80622 104.07884 27805 ft 515 kts 52°
2026-05-04 13:05 25.82581 104.11226 27986 ft 517 kts 52°
2026-05-04 13:05 25.84552 104.14563 28177 ft 518 kts 52°
2026-05-04 13:05 25.86538 104.17923 28357 ft 520 kts 52°
2026-05-04 13:06 25.88523 104.21286 28546 ft 522 kts 52°
2026-05-04 13:06 25.90515 104.24673 28734 ft 523 kts 52°
2026-05-04 13:06 25.92500 104.28056 28976 ft 523 kts 52°
2026-05-04 13:06 25.94483 104.31442 29267 ft 522 kts 52°
2026-05-04 13:07 25.96457 104.34818 29572 ft 521 kts 52°
2026-05-04 13:07 25.98436 104.38200 29833 ft 521 kts 52°
2026-05-04 13:07 26.00416 104.41585 30060 ft 522 kts 52°
2026-05-04 13:07 26.02519 104.44868 30300 ft 517 kts 45°
2026-05-04 13:08 26.04913 104.47744 30515 ft 508 kts 35°
2026-05-04 13:08 26.07592 104.50262 30880 ft 500 kts 32°
2026-05-04 13:08 26.10283 104.52697 31142 ft 500 kts 32°
2026-05-04 13:08 26.13008 104.55150 31314 ft 502 kts 32°
2026-05-04 13:09 26.15724 104.57612 31498 ft 503 kts 32°
2026-05-04 13:09 26.18393 104.60059 31745 ft 503 kts 33°
2026-05-04 13:09 26.21081 104.62547 32059 ft 501 kts 33°
2026-05-04 13:09 26.23753 104.65036 32350 ft 500 kts 33°
2026-05-04 13:10 26.26421 104.67525 32540 ft 501 kts 33°
2026-05-04 13:10 26.29103 104.70028 32767 ft 501 kts 33°
2026-05-04 13:10 26.31768 104.72517 33106 ft 498 kts 32°
2026-05-04 13:10 26.34425 104.75000 33451 ft 497 kts 32°
2026-05-04 13:11 26.37081 104.77481 33698 ft 497 kts 32°
2026-05-04 13:11 26.39733 104.79957 33902 ft 498 kts 32°
2026-05-04 13:11 26.42359 104.82411 34125 ft 498 kts 32°
2026-05-04 13:11 26.45017 104.84899 34386 ft 497 kts 32°
2026-05-04 13:12 26.47664 104.87379 34651 ft 496 kts 32°
2026-05-04 13:12 26.50308 104.89858 34896 ft 495 kts 32°
2026-05-04 13:12 26.52942 104.92328 35114 ft 494 kts 32°
2026-05-04 13:12 26.55581 104.94805 35350 ft 493 kts 32°
2026-05-04 13:13 26.58180 104.97245 35596 ft 492 kts 32°
2026-05-04 13:13 26.60798 104.99710 35809 ft 492 kts 33°
2026-05-04 13:13 26.63225 105.02454 35994 ft 503 kts 43°
2026-05-04 13:13 26.65319 105.05618 36214 ft 510 kts 51°
2026-05-04 13:14 26.66997 105.09160 36481 ft 515 kts 59°
2026-05-04 13:14 26.68468 105.12815 36798 ft 514 kts 60°
2026-05-04 13:14 26.69887 105.16484 37104 ft 512 kts 60°
2026-05-04 13:15 26.72710 105.23773 37182 ft 516 kts 60°
2026-05-04 13:15 26.75645 105.31178 37210 ft 517 kts 60°
2026-05-04 13:16 26.78573 105.38488 37215 ft 515 kts 59°
2026-05-04 13:16 26.81516 105.45824 37199 ft 516 kts 59°
2026-05-04 13:17 26.84454 105.53174 37198 ft 516 kts 59°
2026-05-04 13:17 26.87384 105.60526 37200 ft 517 kts 59°
2026-05-04 13:18 26.90300 105.67852 37191 ft 518 kts 59°
2026-05-04 13:18 26.93228 105.75230 37197 ft 518 kts 59°
2026-05-04 13:19 26.96152 105.82612 37200 ft 517 kts 59°
2026-05-04 13:19 26.99068 105.89982 37208 ft 516 kts 59°
2026-05-04 13:20 27.01960 105.97309 37210 ft 516 kts 59°
2026-05-04 13:20 27.04892 106.04648 37206 ft 514 kts 58°
2026-05-04 13:21 27.08123 106.11786 37201 ft 511 kts 55°
2026-05-04 13:21 27.11431 106.18868 37205 ft 511 kts 55°
2026-05-04 13:22 27.14663 106.25928 37206 ft 511 kts 56°
2026-05-04 13:22 27.17892 106.33059 37204 ft 512 kts 56°
2026-05-04 13:23 27.21131 106.40200 37184 ft 513 kts 56°
2026-05-04 13:23 27.24376 106.47329 37206 ft 512 kts 56°
2026-05-04 13:24 27.27601 106.54429 37184 ft 512 kts 56°
2026-05-04 13:24 27.30839 106.61573 37199 ft 512 kts 56°
2026-05-04 13:25 27.35682 106.72287 37199 ft 515 kts 56°
2026-05-04 13:25 27.38928 106.79496 37184 ft 517 kts 56°
2026-05-04 13:26 27.42172 106.86747 37200 ft 518 kts 56°
2026-05-04 13:26 27.45414 106.94013 37194 ft 520 kts 56°
2026-05-04 13:27 27.48667 107.01290 37212 ft 518 kts 56°
2026-05-04 13:27 27.51941 107.08486 37193 ft 519 kts 56°
2026-05-04 13:28 27.54705 107.14566 37185 ft 519 kts 56°
2026-05-04 13:28 27.57993 107.21833 37196 ft 522 kts 56°
2026-05-04 13:29 27.61294 107.29155 37180 ft 525 kts 56°
2026-05-04 13:29 27.64612 107.36539 37190 ft 528 kts 56°
2026-05-04 13:30 27.67934 107.43949 37190 ft 531 kts 56°
2026-05-04 13:30 27.71257 107.51381 37183 ft 532 kts 56°
2026-05-04 13:31 27.74598 107.58864 37172 ft 533 kts 56°
2026-05-04 13:31 27.77913 107.66299 37172 ft 533 kts 56°
2026-05-04 13:32 27.81237 107.73774 37178 ft 532 kts 56°
2026-05-04 13:32 27.84567 107.81221 37169 ft 531 kts 55°
2026-05-04 13:33 27.87972 107.88651 37175 ft 530 kts 55°
2026-05-04 13:33 27.91371 107.96053 37153 ft 530 kts 55°
2026-05-04 13:34 27.94742 108.03438 37164 ft 530 kts 55°
2026-05-04 13:34 27.98107 108.10851 37163 ft 529 kts 55°
2026-05-04 13:35 28.03159 108.21994 37132 ft 530 kts 55°
2026-05-04 13:36 28.06509 108.29392 37151 ft 531 kts 55°
2026-05-04 13:36 28.09876 108.36850 37153 ft 532 kts 55°
2026-05-04 13:37 28.13247 108.44335 37162 ft 533 kts 55°
2026-05-04 13:37 28.16616 108.51825 37159 ft 534 kts 56°
2026-05-04 13:38 28.19993 108.59345 37165 ft 535 kts 56°
2026-05-04 13:38 28.23345 108.66821 37155 ft 536 kts 56°
2026-05-04 13:39 28.26722 108.74372 37169 ft 536 kts 56°
2026-05-04 13:39 28.30080 108.81897 37148 ft 536 kts 56°
2026-05-04 13:40 28.33451 108.89461 37149 ft 536 kts 56°
2026-05-04 13:40 28.36814 108.97023 37159 ft 536 kts 56°
2026-05-04 13:41 28.40152 109.04544 37156 ft 537 kts 56°
2026-05-04 13:41 28.43514 109.12135 37145 ft 537 kts 56°
2026-05-04 13:42 28.48558 109.23538 37158 ft 536 kts 56°
2026-05-04 13:42 28.51887 109.31082 37161 ft 537 kts 56°
2026-05-04 13:43 28.55241 109.38707 37145 ft 538 kts 56°
2026-05-04 13:43 28.58554 109.46386 37134 ft 542 kts 60°
2026-05-04 13:44 28.61318 109.54355 37156 ft 546 kts 63°
2026-05-04 13:44 28.63984 109.62469 37129 ft 547 kts 63°
2026-05-04 13:45 28.66774 109.70532 37137 ft 545 kts 61°
2026-05-04 13:45 28.69644 109.78481 37148 ft 545 kts 61°
2026-05-04 13:46 28.72533 109.86469 37146 ft 545 kts 62°
2026-05-04 13:46 28.75385 109.94431 37149 ft 545 kts 62°
2026-05-04 13:47 28.78239 110.02451 37152 ft 546 kts 62°
2026-05-04 13:47 28.81092 110.10488 37143 ft 547 kts 62°
2026-05-04 13:48 28.83907 110.18430 37145 ft 547 kts 62°
2026-05-04 13:48 28.86738 110.26443 37129 ft 547 kts 62°
2026-05-04 13:49 28.89579 110.34493 37148 ft 546 kts 62°
2026-05-04 13:49 28.92416 110.42548 37137 ft 546 kts 62°
2026-05-04 13:50 28.95225 110.50542 37124 ft 545 kts 62°
2026-05-04 13:50 28.98041 110.58579 37136 ft 544 kts 62°
2026-05-04 13:51 29.00849 110.66612 37137 ft 543 kts 62°
2026-05-04 13:51 29.03658 110.74649 37126 ft 543 kts 62°
2026-05-04 13:52 29.07916 110.86630 37136 ft 544 kts 62°
2026-05-04 13:53 29.10769 110.94662 37139 ft 545 kts 62°
2026-05-04 13:53 29.13611 111.02707 37137 ft 546 kts 62°
2026-05-04 13:54 29.17874 111.14825 37131 ft 547 kts 63°
2026-05-04 13:55 29.22114 111.26917 37111 ft 547 kts 63°
2026-05-04 13:55 29.26362 111.39072 37117 ft 547 kts 63°
2026-05-04 13:56 29.29169 111.47127 37118 ft 547 kts 63°
2026-05-04 13:57 29.33398 111.59300 37111 ft 547 kts 63°
2026-05-04 13:58 29.40611 111.74350 37114 ft 535 kts 49°
2026-05-04 13:58 29.46832 111.84934 37123 ft 535 kts 50°
2026-05-04 13:59 29.50931 111.92092 37115 ft 536 kts 50°
2026-05-04 14:00 29.57045 112.02862 37109 ft 536 kts 50°
2026-05-04 14:00 29.63159 112.13642 37109 ft 536 kts 50°
2026-05-04 14:01 29.67205 112.20788 37117 ft 536 kts 50°
2026-05-04 14:02 29.73308 112.31594 37113 ft 537 kts 51°
2026-05-04 14:02 29.77373 112.38821 37114 ft 537 kts 51°
2026-05-04 14:03 29.81425 112.46059 37112 ft 537 kts 51°
2026-05-04 14:03 29.85449 112.53268 37115 ft 537 kts 51°
2026-05-04 14:04 29.91513 112.64151 37115 ft 538 kts 51°
2026-05-04 14:04 29.95561 112.71431 37117 ft 538 kts 51°
2026-05-04 14:05 30.01594 112.82307 37113 ft 538 kts 52°
2026-05-04 14:06 30.05431 112.89239 37111 ft 538 kts 52°
2026-05-04 14:06 30.09443 112.96501 37110 ft 538 kts 52°
2026-05-04 14:07 30.13471 113.03805 37112 ft 538 kts 52°
2026-05-04 14:07 30.17492 113.11113 37112 ft 538 kts 52°
2026-05-04 14:08 30.21506 113.18417 37112 ft 538 kts 52°
2026-05-04 14:08 30.25561 113.25690 37111 ft 537 kts 51°
2026-05-04 14:09 30.31664 113.36513 37113 ft 537 kts 52°
2026-05-04 14:10 30.37766 113.47416 37114 ft 537 kts 52°
2026-05-04 14:10 30.41821 113.54689 37115 ft 536 kts 52°
2026-05-04 14:11 30.45842 113.61913 37113 ft 536 kts 52°
2026-05-04 14:11 30.51890 113.72806 37114 ft 535 kts 52°
2026-05-04 14:12 30.55663 113.80281 37093 ft 542 kts 65°
2026-05-04 14:12 30.57238 113.88848 37109 ft 547 kts 88°
2026-05-04 14:13 30.57145 113.91768 37107 ft 546 kts 97°
2026-05-04 14:13 30.56115 114.00501 37120 ft 546 kts 98°
2026-05-04 14:14 30.55265 114.09258 37116 ft 547 kts 96°
2026-05-04 14:14 30.54070 114.22378 37114 ft 547 kts 97°
2026-05-04 14:15 30.52336 114.39965 37112 ft 548 kts 97°
2026-05-04 14:16 30.51036 114.53114 37117 ft 549 kts 97°
2026-05-04 14:17 30.49715 114.66333 37118 ft 549 kts 98°
2026-05-04 14:18 30.48380 114.79552 37114 ft 545 kts 98°
2026-05-04 14:18 30.47505 114.88150 37141 ft 533 kts 98°
2026-05-04 14:19 30.46631 114.96669 37149 ft 530 kts 98°
2026-05-04 14:19 30.45754 115.05150 37143 ft 529 kts 98°
2026-05-04 14:20 30.44872 115.13623 37151 ft 529 kts 98°
2026-05-04 14:20 30.43927 115.22078 37142 ft 528 kts 104°
2026-05-04 14:21 30.41623 115.30030 37140 ft 520 kts 121°
2026-05-04 14:21 30.39815 115.33631 37142 ft 515 kts 128°
2026-05-04 14:21 30.35846 115.40571 37130 ft 517 kts 130°
2026-05-04 14:22 30.31845 115.47528 37139 ft 519 kts 129°
2026-05-04 14:22 30.27866 115.54546 37146 ft 522 kts 129°
2026-05-04 14:23 30.21922 115.65105 37147 ft 524 kts 129°
2026-05-04 14:24 30.17932 115.72181 37148 ft 525 kts 129°
2026-05-04 14:24 30.13928 115.79260 37154 ft 526 kts 129°
2026-05-04 14:25 30.09912 115.86347 37151 ft 526 kts 129°
2026-05-04 14:25 30.03904 115.96928 37152 ft 526 kts 130°
2026-05-04 14:26 29.99888 116.03982 37149 ft 525 kts 130°
2026-05-04 14:26 29.95895 116.10985 37152 ft 524 kts 130°
2026-05-04 14:27 29.91878 116.18018 37152 ft 524 kts 130°
2026-05-04 14:27 29.87861 116.25038 37155 ft 523 kts 130°
2026-05-04 14:28 29.83874 116.31994 37159 ft 523 kts 130°
2026-05-04 14:28 29.79853 116.38996 37167 ft 523 kts 130°
2026-05-04 14:29 29.71804 116.52979 37166 ft 524 kts 131°
2026-05-04 14:30 29.67749 116.60004 37167 ft 525 kts 131°
2026-05-04 14:30 29.63703 116.66998 36900 ft 530 kts 131°
2026-05-04 14:31 29.61657 116.70531 36545 ft 531 kts 131°
2026-05-04 14:31 29.57589 116.77558 35568 ft 524 kts 131°
2026-05-04 14:32 29.53599 116.84442 34645 ft 517 kts 132°
2026-05-04 14:32 29.51616 116.87854 33933 ft 511 kts 132°
2026-05-04 14:32 29.49639 116.91254 33141 ft 505 kts 132°
2026-05-04 14:32 29.47694 116.94593 32372 ft 500 kts 132°
2026-05-04 14:33 29.45767 116.97897 31637 ft 495 kts 132°
2026-05-04 14:33 29.43857 117.01169 30915 ft 491 kts 132°
2026-05-04 14:33 29.41980 117.04381 30218 ft 487 kts 132°
2026-05-04 14:33 29.40059 117.07654 29425 ft 502 kts 131°
2026-05-04 14:34 29.38080 117.11042 28646 ft 520 kts 128°
2026-05-04 14:34 29.36568 117.14860 27823 ft 533 kts 109°
2026-05-04 14:34 29.36029 117.19084 27099 ft 537 kts 94°
2026-05-04 14:34 29.36125 117.23357 26378 ft 537 kts 85°
2026-05-04 14:35 29.36658 117.27595 25660 ft 536 kts 78°
2026-05-04 14:35 29.37593 117.31684 24944 ft 522 kts 69°
2026-05-04 14:35 29.38975 117.35493 24268 ft 509 kts 64°
2026-05-04 14:35 29.40438 117.39151 23580 ft 499 kts 63°
2026-05-04 14:36 29.41875 117.42690 22790 ft 490 kts 63°
2026-05-04 14:36 29.43297 117.46211 22005 ft 482 kts 63°
2026-05-04 14:36 29.44682 117.49684 21325 ft 476 kts 64°
2026-05-04 14:36 29.46041 117.53137 21101 ft 474 kts 64°
2026-05-04 14:37 29.47374 117.56552 20956 ft 475 kts 64°
2026-05-04 14:37 29.48719 117.60016 20807 ft 472 kts 64°
2026-05-04 14:37 29.50043 117.63437 20804 ft 469 kts 64°
2026-05-04 14:37 29.51370 117.66869 20798 ft 468 kts 64°
2026-05-04 14:38 29.52691 117.70284 20749 ft 467 kts 64°
2026-05-04 14:38 29.54004 117.73680 20799 ft 465 kts 64°
2026-05-04 14:38 29.55318 117.77084 20799 ft 465 kts 64°
2026-05-04 14:38 29.56624 117.80472 20782 ft 464 kts 64°
2026-05-04 14:39 29.57918 117.83831 20779 ft 463 kts 64°
2026-05-04 14:39 29.59220 117.87213 20805 ft 463 kts 64°
2026-05-04 14:39 29.60523 117.90599 20802 ft 463 kts 64°
2026-05-04 14:40 29.63119 117.97355 20806 ft 464 kts 64°
2026-05-04 14:40 29.64425 118.00759 20809 ft 464 kts 64°
2026-05-04 14:40 29.65731 118.04167 20807 ft 464 kts 65°
2026-05-04 14:40 29.67034 118.07569 20813 ft 465 kts 64°
2026-05-04 14:41 29.68336 118.10975 20809 ft 465 kts 65°
2026-05-04 14:41 29.69637 118.14379 20805 ft 465 kts 64°
2026-05-04 14:41 29.72204 118.21214 20795 ft 465 kts 69°
2026-05-04 14:42 29.73461 118.28579 20002 ft 471 kts 88°
2026-05-04 14:42 29.73319 118.32331 19544 ft 462 kts 97°
2026-05-04 14:42 29.72961 118.35968 19110 ft 457 kts 97°
2026-05-04 14:43 29.72586 118.39585 18674 ft 454 kts 97°
2026-05-04 14:43 29.72221 118.43195 18216 ft 451 kts 97°
2026-05-04 14:43 29.71881 118.46715 17718 ft 447 kts 96°
2026-05-04 14:43 29.71551 118.50256 17210 ft 442 kts 96°
2026-05-04 14:44 29.71232 118.53749 16698 ft 436 kts 96°
2026-05-04 14:44 29.70921 118.57186 16194 ft 426 kts 96°
2026-05-04 14:44 29.70614 118.60559 15983 ft 424 kts 96°
2026-05-04 14:44 29.70304 118.63948 15923 ft 424 kts 96°
2026-05-04 14:45 29.69996 118.67313 15918 ft 422 kts 96°
2026-05-04 14:45 29.69686 118.70677 15908 ft 422 kts 96°
2026-05-04 14:45 29.69381 118.74042 15912 ft 423 kts 96°
2026-05-04 14:45 29.69082 118.77411 15910 ft 423 kts 96°
2026-05-04 14:46 29.68781 118.80798 15913 ft 423 kts 96°
2026-05-04 14:46 29.68481 118.84167 15904 ft 423 kts 96°
2026-05-04 14:46 29.68181 118.87528 15918 ft 422 kts 96°
2026-05-04 14:46 29.67878 118.90901 15909 ft 422 kts 96°
2026-05-04 14:47 29.67575 118.94265 15569 ft 422 kts 96°
2026-05-04 14:47 29.67273 118.97594 15133 ft 415 kts 96°
2026-05-04 14:47 29.66976 119.00868 14702 ft 407 kts 96°
2026-05-04 14:47 29.66685 119.04062 14287 ft 403 kts 96°
2026-05-04 14:48 29.66393 119.07267 13979 ft 400 kts 96°
2026-05-04 14:48 29.66102 119.10443 13931 ft 400 kts 96°
2026-05-04 14:48 29.65810 119.13629 13524 ft 397 kts 96°
2026-05-04 14:48 29.65525 119.16724 13119 ft 392 kts 96°
2026-05-04 14:49 29.65241 119.19832 12706 ft 389 kts 96°
2026-05-04 14:49 29.64955 119.22948 12313 ft 392 kts 96°
2026-05-04 14:49 29.64670 119.26049 11966 ft 387 kts 96°
2026-05-04 14:49 29.64387 119.29122 11922 ft 384 kts 96°
2026-05-04 14:50 29.64109 119.32167 11920 ft 383 kts 95°
2026-05-04 14:50 29.63964 119.34198 11918 ft 384 kts 94°
2026-05-04 14:50 29.63798 119.37266 11914 ft 384 kts 93°
2026-05-04 14:50 29.63648 119.40335 11913 ft 384 kts 93°
2026-05-04 14:51 29.63487 119.43408 11911 ft 385 kts 93°
2026-05-04 14:51 29.63317 119.46445 11907 ft 385 kts 93°
2026-05-04 14:51 29.63141 119.49519 11907 ft 385 kts 93°
2026-05-04 14:51 29.63034 119.52601 11907 ft 385 kts 91°
2026-05-04 14:52 29.62974 119.55687 11913 ft 385 kts 91°
2026-05-04 14:52 29.62911 119.58762 11916 ft 385 kts 91°
2026-05-04 14:52 29.62840 119.61848 11907 ft 385 kts 90°
2026-05-04 14:52 29.63210 119.64882 11913 ft 384 kts 71°
2026-05-04 14:53 29.64432 119.67596 11915 ft 383 kts 52°
2026-05-04 14:53 29.66093 119.69982 11917 ft 382 kts 50°
2026-05-04 14:53 29.67797 119.72339 11914 ft 383 kts 49°
2026-05-04 14:53 29.69506 119.74699 11905 ft 383 kts 50°
2026-05-04 14:54 29.71196 119.77055 11905 ft 380 kts 50°
2026-05-04 14:54 29.72814 119.79330 11882 ft 353 kts 50°
2026-05-04 14:54 29.74307 119.81441 11770 ft 329 kts 50°
2026-05-04 14:54 29.75723 119.83449 11401 ft 317 kts 50°
2026-05-04 14:55 29.77078 119.85374 11166 ft 301 kts 50°
2026-05-04 14:55 29.78364 119.87203 10939 ft 287 kts 50°
2026-05-04 14:55 29.79597 119.88960 10709 ft 276 kts 50°
2026-05-04 14:55 29.80787 119.90655 10358 ft 269 kts 50°
2026-05-04 14:56 29.81941 119.92298 10013 ft 265 kts 50°
2026-05-04 14:56 29.83083 119.93924 9722 ft 257 kts 50°
2026-05-04 14:56 29.84204 119.95521 9414 ft 250 kts 50°
2026-05-04 14:56 29.85259 119.97092 9112 ft 244 kts 56°
2026-05-04 14:57 29.86088 119.98776 8837 ft 239 kts 61°
2026-05-04 14:57 29.86851 120.00448 8478 ft 238 kts 61°
2026-05-04 14:57 29.87626 120.02129 8116 ft 237 kts 61°
2026-05-04 14:57 29.88404 120.03788 7919 ft 232 kts 60°
2026-05-04 14:58 29.89182 120.05435 7911 ft 235 kts 60°
2026-05-04 14:58 29.89964 120.07089 7892 ft 235 kts 60°
2026-05-04 14:58 29.90749 120.08747 7894 ft 235 kts 60°
2026-05-04 14:58 29.91533 120.10403 7892 ft 235 kts 60°
2026-05-04 14:59 29.92321 120.12065 7881 ft 235 kts 60°
2026-05-04 14:59 29.93101 120.13712 7890 ft 234 kts 60°
2026-05-04 14:59 29.94656 120.16998 7885 ft 235 kts 60°
2026-05-04 15:00 29.95436 120.18648 7894 ft 235 kts 60°
2026-05-04 15:00 29.96218 120.20304 7887 ft 235 kts 60°
2026-05-04 15:00 29.97002 120.21963 7888 ft 236 kts 60°
2026-05-04 15:01 29.98623 120.25393 7117 ft 244 kts 60°
2026-05-04 15:01 29.99428 120.27096 6920 ft 235 kts 60°
2026-05-04 15:01 30.00183 120.28742 6895 ft 229 kts 62°
2026-05-04 15:01 30.00911 120.30369 6889 ft 229 kts 62°
2026-05-04 15:02 30.01645 120.32016 6901 ft 233 kts 62°
2026-05-04 15:02 30.02394 120.33699 6678 ft 243 kts 62°
2026-05-04 15:02 30.03184 120.35472 6300 ft 250 kts 62°
2026-05-04 15:02 30.03978 120.37256 5959 ft 253 kts 62°
2026-05-04 15:03 30.04765 120.39026 5900 ft 242 kts 62°
2026-05-04 15:03 30.05517 120.40717 5877 ft 232 kts 62°
2026-05-04 15:03 30.06255 120.42375 5885 ft 231 kts 62°
2026-05-04 15:03 30.06985 120.44017 5882 ft 229 kts 62°
2026-05-04 15:04 30.07714 120.45658 5892 ft 230 kts 62°
2026-05-04 15:04 30.08445 120.47303 5899 ft 230 kts 62°
2026-05-04 15:04 30.09168 120.48931 5896 ft 231 kts 62°
2026-05-04 15:04 30.09905 120.50590 5898 ft 231 kts 62°
2026-05-04 15:05 30.10648 120.52263 5895 ft 232 kts 62°
2026-05-04 15:05 30.11377 120.53905 5891 ft 232 kts 62°
2026-05-04 15:05 30.12115 120.55567 5890 ft 232 kts 62°
2026-05-04 15:05 30.12841 120.57204 5889 ft 232 kts 62°
2026-05-04 15:06 30.13578 120.58870 5845 ft 234 kts 62°
2026-05-04 15:06 30.14331 120.60572 5629 ft 238 kts 62°
2026-05-04 15:06 30.15080 120.62268 5427 ft 235 kts 62°
2026-05-04 15:07 30.16570 120.65646 5012 ft 229 kts 63°
2026-05-04 15:07 30.17277 120.67250 4910 ft 232 kts 63°
2026-05-04 15:07 30.18025 120.68945 4629 ft 239 kts 63°
2026-05-04 15:07 30.18785 120.70669 4259 ft 244 kts 63°
2026-05-04 15:08 30.19560 120.72427 3890 ft 247 kts 63°
2026-05-04 15:08 30.20354 120.74213 3526 ft 251 kts 60°
2026-05-04 15:08 30.21563 120.75675 3115 ft 256 kts 29°
2026-05-04 15:08 30.23238 120.76182 2663 ft 254 kts 355°
2026-05-04 15:09 30.24922 120.75665 2237 ft 250 kts 334°
2026-05-04 15:09 30.26464 120.74788 2006 ft 240 kts 330°
2026-05-04 15:09 30.27889 120.73930 1973 ft 223 kts 329°
2026-05-04 15:10 30.30502 120.72344 1963 ft 200 kts 329°
2026-05-04 15:10 30.31724 120.71608 1978 ft 199 kts 329°
2026-05-04 15:10 30.33760 120.70390 1972 ft 196 kts 329°